Regional Weather Roundup
Issued by NWS Austin/San Antonio, TX

Home | Current Version | Previous Version | Text Only | Print | Product List | Glossary On
Versions: 1 2 3 4 5 6 7 8 9 10 11 12 13 14 15 16 17 18 19 20 21 22 23 24 25 26 27 28 29 30 31 32 33 34 35 36 37 38 39 40 41 42 43 44 45 46 47 48 49 50
000
ASUS44 KEWX 192110
RWREWX
SOUTH TEXAS REGIONAL WEATHER ROUNDUP
NATIONAL WEATHER SERVICE AUSTIN/SAN ANTONIO TX
300 PM CST SUN NOV 19 2017

NOTE: "FAIR" INDICATED FEW OR NO CLOUDS BELOW 12,000 FEET WITH NO
SIGNIFICANT WEATHER AND/OR OBSTRUCTIONS TO VISIBILITY.

* - THESE STATIONS ARE NOT NWS OR FAA STATIONS...AND ARE NOT SUBJECT
    TO NWS AND FAA QUALITY CONTROL.

TXZ171-172-183>190-192200-
TEXAS HILL COUNTRY AND EDWARDS PLATEAU

CITY           SKY/WX    TMP DP  RH WIND       PRES   REMARKS
JUNCTION       MOSUNNY   61  24  24 CALM      30.25F
*LLANO         MOSUNNY   63  28  27 CALM      30.30F
BURNET         MOSUNNY   61  26  26 CALM      30.28F
*HORSESHOE BAY MOSUNNY   64  26  23 N6        30.26F
*KERRVILLE     MOSUNNY   60  21  22 CALM      30.26F
*FREDERICKSBRG MOSUNNY   58  22  24 NE3       30.26F
*ROCKSPRINGS   NOT AVBL
*BOERNE STAGE  SUNNY     59  23  25 E5        30.27F
*CASTROVILLE   SUNNY     67  23  18 CALM      30.27F
HONDO          MOSUNNY   68  24  19 CALM      30.25F
*UVALDE        MOSUNNY   63  22  20 CALM      30.26F
DEL RIO        PTSUNNY   63  26  24 SE8       30.24F
LAUGHLIN AFB   PTSUNNY   62  24  23 CALM      30.24F
CARRIZO SPRGS  PTSUNNY   63  25  23 CALM      30.25F
*EAGLE PASS    CLEAR     64  21  19 CALM      30.25F
$$

TXZ173-191>194-202-209-217>225-228-192200-
CENTRAL AND SOUTH CENTRAL TEXAS

CITY           SKY/WX    TMP DP  RH WIND       PRES   REMARKS
GEORGETOWN     MOSUNNY   64  26  23 NE8       30.27F
AUSTIN/BERGSTM PTSUNNY   64  31  28 N9        30.25F
AUSTIN/MABRY   MOSUNNY   64  32  30 VRB3      30.27F
*AUSTIN/EXEC   MOSUNNY   63  28  27 CALM      30.26F HAZE
*LAGO VISTA    MOSUNNY   62  28  27 E5        30.26F
SAN MARCOS     MOSUNNY   64  28  25 NE12      30.26F
NEW BRAUNFELS  SUNNY     64  27  24 VRB7      30.24F
RANDOLPH AFB   SUNNY     64  26  24 NE8       30.25F
PT SAN ANTONIO SUNNY     65  26  23 NE7       30.24F
SAN ANTONIO    PTSUNNY   64  23  21 NE7       30.25F
STINSON FIELD  MOSUNNY   67  24  19 NE8       30.24F
*LA GRANGE     SUNNY     64  32  29 NE3       30.23F
*GIDDINGS      SUNNY     62  30  29 N9        30.26F
*GONZALES      SUNNY     66  29  25 N5        30.24F
$$

TXZ163>164-176>182-195>201-210>213-226-227-235-192200-
SOUTHEAST TEXAS

CITY           SKY/WX    TMP DP  RH WIND       PRES   REMARKS
COLLEGE STN    SUNNY     65  29  25 N7        30.24F
*BRYAN         SUNNY     63  31  30 N7        30.25F
*CALDWELL      SUNNY     63  28  26 N6        30.25F
*CROCKETT        N/A    N/A N/A N/A MISG        N/A
*BRENHAM       SUNNY     64  30  27 N8        30.25S
HUNTSVILLE     MOSUNNY   64  31  28 VRB6      30.23F
CONROE         CLOUDY    64  30  27 N9        30.23F
HOUSTON BUSH   PTSUNNY   66  31  27 N10G17    30.22F
HOUSTON HOBBY  PTSUNNY   65  31  28 N10       30.21F
*HOUSTON SW AP SUNNY     64  35  33 NW7       30.22F
PEARLAND       SUNNY     67  31  26 NE14      30.22F
HOUSTON HOOKS  SUNNY     64  32  30 N9        30.23F
ELLINGTON FLD  MOSUNNY   63  30  29 NW7       30.24F
SUGAR LAND     SUNNY     66  31  27 NE9       30.21F
*HOUSTON EXEC  SUNNY     64  32  29 N6        30.24F
*CLEVELAND MUN SUNNY     64  27  24 NW8       30.23F
*WHARTON       SUNNY     65  24  20 N12       30.23F
*COLUMBUS      FAIR      63  25  23 N7        30.25F
*EAGLE LAKE    CLEAR     65  30  27 N9        30.23F
$$

TXZ214>216-236>238-192200-
THE UPPER TEXAS COAST

CITY           SKY/WX    TMP DP  RH WIND       PRES   REMARKS
*ORANGE        MOSUNNY   64  33  32 NE10      30.22S
PORT ARTHUR    MOSUNNY   64  33  31 N15       30.20S
GALVESTON      SUNNY     65  34  31 N10       30.23F
ANGLETON       MOSUNNY   66  30  26 VRB6      30.22F
*BAY CITY      SUNNY     66  31  26 N9        30.22F
PALACIOS       SUNNY     66  30  26 NE8       30.23F
$$

TXZ229>234-239>247-192200-
TEXAS COASTAL BEND AND RIO GRANDE PLAINS

CITY           SKY/WX    TMP DP  RH WIND       PRES   REMARKS
VICTORIA       SUNNY     68  29  23 N7        30.24F
*BEEVILLE      SUNNY     66  29  24 NE8       30.24F
ROCKPORT       SUNNY     67  30  25 N10       30.23F
*PORT ARANSAS  NOT AVBL
*PORT LAVACA   NOT AVBL
*INGLESIDE     NOT AVBL
CORPUS CHRISTI MOSUNNY   67  31  26 NE8       30.23F
CORPUS NAS     SUNNY     67  37  33 NE13      30.23F
*ROBSTOWN      SUNNY     66  30  26 NE12      30.23F
ALICE          SUNNY     69  24  18 N9        30.23F
KINGSVILLE NAS MOSUNNY   69  32  25 NE12G18   30.23F
COTULLA        PTSUNNY   67  21  17 NE5       30.25F
*FAITH RANCH   SUNNY     64  28  25 E6        30.25F
LAREDO         PTSUNNY   66  28  24 N8        30.25F
$$

TXZ248>255-192200-
DEEP SOUTH TEXAS

CITY           SKY/WX    TMP DP  RH WIND       PRES   REMARKS
BROWNSVILLE    MOSUNNY   70  50  49 N15G23    30.20F
PORT ISABEL    MOSUNNY   68  50  52 N18       30.20F
*SOUTH PADRE   NOT AVBL
HARLINGEN      MOSUNNY   68  46  45 NE15G24   30.21F
*HEBBRONVILLE  SUNNY     64  24  22 NE6       30.24F
MCALLEN        SUNNY     70  38  31 N9        30.23F
*WESLACO       SUNNY     67  42  40 E12       30.22F
FALFURRIAS     SUNNY     67  27  22 NE9       30.23F
EDINBURG       SUNNY     70  32  25 NE8       30.23F
*ZAPATA        SUNNY     68  25  19 NW6       30.23F
$$

TXZ213>215-236>238-242>244-246-247-251-254-255-192200-
CMAN STATIONS

STATION/POSITION TIME  TEMP    WIND        PRES    WAVE
                       AIR SEA DIR/SP/G            HT/PER
                 (UTC) (F)     (DEG/KT/KT) (MB)    (FT/S)
SABINE PASS      2036   61 69   10/ 12/ 17 1024.2
SEA RIM ST PARK  2100   62     350/ 11/ 13 1023.1
NORTH JETTY/GLS  2036      67  330/ 12/ 15 1022.6
EAGLE POINT      2036   61 66   30/  7/ 11 1023.4
MORGANS POINT    2036   62 70   10/  8/ 13 1023.4
PORT O`CONNOR    2048   61 64   10/  6/  8 1023.5
PORT ARANSAS     2100   62 70   20/ 10/ 12 1023.6
MALAQUITE BEACH  2048   61 70   30/ 13/ 18 1023.3
BAFFIN BAY       2048   61 68   10/ 13/ 18 1024.2
PORT ISABEL      2048   65 73  350/ 14/ 19 1022.2
$$




USA.gov is the U.S. government's official web portal to all federal, state and local government web resources and services.